Regional Weather Roundup
Issued by NWS

Home | Current Version | Previous Version | Text Only | Print | Product List | Glossary On
Versions: 1 2 3 4 5 6 7 8 9 10 11 12 13 14 15 16 17 18 19 20 21 22 23 24 25 26 27 28 29 30 31 32 33 34 35 36 37 38 39 40 41 42 43 44 45 46 47 48 49 50
000
ASUS46 KLOX 211512
RWRCA

SOUTHERN CALIFORNIA WEATHER ROUNDUP
NATIONAL WEATHER SERVICE OXNARD CALIFORNIA
800 AM PDT TUE APR 21 2015

NOTE: "FAIR" INDICATES FEW OR NO CLOUDS BELOW 12,000 FEET WITH NO
SIGNIFICANT WEATHER AND/OR OBSTRUCTIONS TO VISIBILITY.

  -  STATIONS PRECEEDED BY AN ASTERISK (*) ARE NOT NWS OR FAA
     STATIONS AND ARE NOT SUBJECT TO NWS AND FAA QUALITY CONTROL.

CAZ041-042-087-211600-
LA AND ORANGE COUNTY COASTAL AREAS


CITY           SKY/WX    TMP DP  RH WIND       PRES   REMARKS
L.A. DOWNTOWN  CLOUDY    60  47  61 CALM      29.93R
L.A. AIRPORT   CLOUDY    59  48  67 SE5       29.94R
LONG BEACH     CLOUDY    61  47  59 W6        29.94R

CITY           SKY/WX    TMP DP  RH WIND       PRES   REMARKS
AVALON           N/A     61 N/A N/A MISG        N/A
FULLERTON      CLOUDY    61  47  59 CALM      29.93R
*GETTY CENTER    N/A    N/A N/A N/A SW2         N/A
HAWTHORNE      CLOUDY    61  47  59 SW5       29.94R
*LEO CARRILLO    N/A     60  49  68 S2          N/A
*LOS ALAMITOS  CLOUDY    60  49  65 S3        29.94R
*REDONDO BEACH   N/A     59  48  67 CALM      29.94R
SANTA ANA      CLOUDY    61  43  51 S7        29.93R
STA MONICA APT CLOUDY    61  48  62 S7        29.94R
TORRANCE       CLOUDY    61  48  63 CALM      29.94R
*UCLA            N/A     59  46  63 CALM      29.91R

$$

CAZ547-548-048-211600-
LA COUNTY VALLEYS AND INLAND EMPIRE


CITY           SKY/WX    TMP DP  RH WIND       PRES   REMARKS
BURBANK        CLOUDY    58  46  64 S5        29.93R
VAN NUYS       CLOUDY    57  46  66 S6        29.93R

CITY           SKY/WX    TMP DP  RH WIND       PRES   REMARKS
CORONA AIRPORT CLOUDY    58  49  72 CALM      29.94R
*CHATSWORTH      N/A     57  47  67 CALM      29.94R
CHINO          CLOUDY    59  49  69 SW8       29.94R
MARCH AFB      CLOUDY    54  49  81 S5        29.93R
*NORTHRIDGE      N/A     55  45  67 SE3         N/A
ONTARIO        CLOUDY    57  47  69 SW6       29.93R
*PASADENA        N/A     57  50  77 E1          N/A
POMONA         CLOUDY    55  48  76 SW9       29.96R
RIVERSIDE      CLOUDY    57  48  72 W3        29.94R
SAN BERNARDINO CLOUDY    55  46  71 CALM      29.94R HAZE
*SAN RAFAEL HI   N/A     53  51  92 SE2         N/A
*SAUGUS          N/A     49  49  98 CALM        N/A
*WHITEMAN AP   SUNNY     55  46  71 SE6       29.96
*WOODLAND HILL   N/A     57  46  67 S3          N/A

$$

CAZ054-055-211600-
LA AND SAN BERNARDINO COUNTY MOUNTAINS


CITY           SKY/WX    TMP DP  RH WIND       PRES   REMARKS
*BIG BEAR AIRP SUNNY     37  28  70 CALM      29.98S
MT WILSON NWS    N/A     50  37  62 MISG        N/A
SANDBERG       FOG       43  41  93 SW16      29.92R VSB<1/4

$$

CAZ028-029-059-060-099-211600-
ANTELOPE VALLEY AND SURROUNDING AREAS


CITY           SKY/WX    TMP DP  RH WIND       PRES   REMARKS
LANCASTER      MOSUNNY   54  43  66 SW15      29.86R
PALMDALE       MOSUNNY   55  42  61 SW17      29.86R
*POPPY PARK      N/A     52  45  77 SW25G38     N/A

CITY           SKY/WX    TMP DP  RH WIND       PRES   REMARKS
29 PALMS       SUNNY     60  30  32 CALM      29.89
BARSTOW/DAGGET SUNNY     62  36  37 W13       29.82R
BISHOP         MOSUNNY   58  24  27 NW6       29.88S
CHINA LAKE     MOSUNNY   61  36  39 N5        29.81R
EDWARDS AFB    MOSUNNY   55  42  61 S10       29.83R
MOJAVE         FAIR      57  37  47 CALM      29.85R
NEEDLES        SUNNY     76  22  13 CALM      29.81R
VICTORVILLE    SUNNY     55  41  58 S13       29.86R

$$

CAZ039-040-211600-
VENTURA AND SANTA BARBARA COUNTY COAST


CITY           SKY/WX    TMP DP  RH WIND       PRES   REMARKS
CAMARILLO      CLOUDY    61  45  55 CALM      29.93R
NWS OXNARD       N/A     58  49  72 CALM      29.92R
OXNARD AIRPORT CLOUDY    58  50  75 W3        29.93R
*POINT MUGU    CLOUDY    60  49  66 CALM      29.94R
SBA APT/GOLETA CLOUDY    58  51  78 E3        29.93R
*SANTA BARBARA   N/A     58  51  78 CALM      30.01R
*VENTURA         N/A     58  49  69 NE6       29.96S

$$

CAZ044-045-211600-
VENTURA COUNTY VALLEYS


CITY           SKY/WX    TMP DP  RH WIND       PRES   REMARKS
*SIMI VALLEY     N/A     55  49  80 CALM      29.91R
*OJAI            N/A     54  50  87 CALM      29.90R
*FILLMORE        N/A     56  53  88 CALM      29.84R

$$

CAZ053-211600-
VENTURA COUNTY MOUNTAINS


CITY           SKY/WX    TMP DP  RH WIND       PRES   REMARKS
*LOCKWOOD VLY    N/A     50  36  57 CALM        N/A
*ROSE VALLEY     N/A     45  45 100 MISG        N/A

$$

CAZ034-035-036-211600-
CENTRAL COAST AND SANTA YNEZ VALLEY


CITY           SKY/WX    TMP DP  RH WIND       PRES   REMARKS
SAN LUIS OBISP CLOUDY    55  47  74 E7        29.93R
SANTA MARIA    CLOUDY    57  47  69 CALM      29.94R

CITY           SKY/WX    TMP DP  RH WIND       PRES   REMARKS
*CAL POLY SLO    N/A     54  48  82 W1          N/A
*LOMPOC        CLOUDY    55  45  67 CALM      29.95R
*PISMO BEACH     N/A     56  49  77 NE1       29.94R
*SANTA YNEZ    CLOUDY    54  46  76 CALM      29.94R

$$

CAZ037-038-051-211600-
SAN LUIS OBISPO COUNTY INTERIOR AND CUYAMA VALLEY


CITY           SKY/WX    TMP DP  RH WIND       PRES   REMARKS
*CUYAMA          N/A     47  44  91 CALM      29.84R
PASO ROBLES    CLOUDY    52  45  77 W7        29.91R

$$

CAZ032-033-061-211600-
SOUTHERN DESERTS


CITY           SKY/WX    TMP DP  RH WIND       PRES   REMARKS
BLYTHE         SUNNY     67  31  26 SE3       29.82R
IMPERIAL       SUNNY     65  45  48 W6        29.79R
PALM SPRINGS   SUNNY     67  46  47 VRB6      29.82R
THERMAL        SUNNY     68  47  46 N7        29.79R

$$

ELSEWHERE ACROSS THE WESTERN UNITED STATES AND MEXICO


CITY           SKY/WX    TMP DP  RH WIND       PRES   REMARKS
DENVER, CO     MOSUNNY   50  33  52 SW9       29.94S
GRAND CANYON,  PTSUNNY   49  21  33 CALM      30.05S
HONOLULU, HI   LGT RAIN  73  64  73 NE13      30.00S
KAHULUI, MAUI  PTCLDY    72  64  78 E13G20    30.00R
LAKE TAHOE, CA SUNNY     38  28  67 S3        29.98S
LAS VEGAS, NV  MOSUNNY   68  22  17 SW3       29.79R
MAMMOTH LAKES, FAIR      41  23  48 SE8       30.02R
MEXICO CITY, M SUNNY     66  55  68 VRB3      30.30S
PHOENIX, AZ    MOSUNNY   71  24  17 SE9       29.85R
PORTLAND, OR   MOSUNNY   53  47  79 CALM      29.95R
RENO, NV       MOSUNNY   52  30  43 CALM      29.92R
SALT LAKE CITY MOSUNNY   55  31  39 SE9       29.90S
SAN DIEGO, CA  PTSUNNY   62  45  53 W5        29.95R
SAN FRANCISCO, CLOUDY    54  52  93 SW8       29.89R
SAN JOSE, CA   CLOUDY    55  47  74 S9        29.89R
SEATTLE, WA    PTSUNNY   51  46  83 S6        29.93R
TIJUANA, MEX   CLOUDY    61  41  48 CALM      29.96R

$$

STATION/POSITION TIME  TEMP    WIND        PRES    VSBY  WAVE
                       AIR SEA DIR/SP/G                  HT/PER
                 (UTC) (F)     (DEG/KT/KT) (MB)    (MI)  (FT/S)
POINT ARGUELLO B NOT AVBL
WEST SANTA BARBA 1500   56 56  340/  6/  8 1013.2R         5/13
POINT CONCEPTION NOT AVBL
EAST SANTA BARBA NOT AVBL
SANTA MONICA BAY 1500   59 62  220/  4/  6 1013.8R         3/14



USA.gov is the U.S. government's official web portal to all federal, state and local government web resources and services.